Погода в Поронайске

Погода в Поронайске : погода сейчас, прогноз погоды и архив. Всё, что Вы хотите узнать о погоде в Поронайске!

Хотите узнать прогноз погоды в Поронайске? Тогда Вам сюда: Погода в Поронайске

Поиск расширенной информации на нашем сайте:

Другие новости

Новости СМИ2

Главная страница сайта

Новости сайта

02.10.2013

Напоминаем, что на нашем новом сайте вы можете получить высокодетализированные прогнозы погоды по пунктам России, СНГ и мира (включающие важные для авиации метеовеличины, такие как направление и скорость ветра, видимость, явления погоды, количество и форма облачности, нижняя и верхняя граница облачности), а также ознакомиться с разнообразными материалами по авиационной метеорологии и подборкой полезных ссылок на эту тему.

Сайт Метеоцентр.Азия посвящён разработке технологий оптимизации авиаметеорологического обслуживания, включая проектирование и перспективное создание нескольких автоматизированных авиаметеорологических систем:
- система выпуска высокодетальных прогностических карт явлений погоды для нижнего воздушного пространства по России и ближнему зарубежью;
- система верификации прогнозов TAF (выпускаемых синоптиками официальных АМСГ РФ и ближнего зарубежья) и AUTOTAF (выпускаемых сайтом Метеоцентр.Азия) - выявление ошибок, онлайн-сопоставление с фактической погодой METAR, автоматическое внесение коррективов в прогнозы при резком отклонении фактической погоды от прогноза, подсчёт оправдываемости прогнозов по элементам и в целом;
- система обработки, анализа и отображения авиаметеорологической информации для применения провайдерами метеорологической информации.

Рекомендуем: Самая подробная информация услуги аренды персонала на сайте.

Погода в Поронайске - сегодня

Время (UTC), дата Ветер
(°,м/с) 
Видим.   Явления Облачность Т
(°С)
Тd
(°С)
f(%) Тe
(°С)
Pmin
(гПа)
dP
(гПа)
Po
(мм)
O2
(г/м3)
Тmin Tmax R s Состояние
почвы
12 20.06.17 180 (Ю) 6-8{09}  10 км    10/0 средняя 
[Ac As]
+9.6 +7.3 86 +8  1014.1  0.6  760  295           
15 20.06.17 190 (Ю) 7-10{10}  10 км    10/3 600 м кучево-дожд., средняя, верхняя 
[Cb cap|Ac trans|Ci fib]
+9.2 +6.7 84 +7  1013.9  -0.2  760  295           
18 20.06.17 190 (Ю) 5-7{10}  10 км    10/10 400 м 
[St]
+8.8 +6.7 87 +7  1014  0.1  760  295           
21 20.06.17 210 (ЮЗ) 3-4{07}  10 км    10/8 240 м средняя, верхняя 
[St|Ac trans|Ci fib]
+9.2 +7.4 88 +9  1013.6  -0.3  759  295  +8.7        влажная 
00 21.06.17 190 (Ю) 5-6{06}  20000 м    10/6 360 м средняя, верхняя 
[St|Ac trans|Ci ing]
+9.6 +7.4 86 +8  1012.9  -0.7  759  294           
03 21.06.17 190 (Ю) 6-8{09}  20000 м    10/4 300 м кучево-дожд., средняя, верхняя 
[Cb cap|Ac lent|Ci ing]
+9.8 +7.4 85 +8  1012.2  -0.7  758  294           
06 21.06.17 190 (Ю) 6-8{10}  10 км  слаб. ливневой дождь  10/9 180 м кучево-дожд., верхняя 
[Cb cap|Ci ing]
+9 +8 93 +7  1010.5  -1.7  757  294           
09 21.06.17 190 (Ю) 5-8{09}  2000 м  слаб. ливневой дождь  10/10 180 м кучево-дожд. 
[Cb cap]
+8.5 +8 97 +7  1009.5  -0.9  756  294    +10.8  0.3     
12 21.06.17 200 (Ю) 4-6{08}  2000 м  в посл. час ливневой дождь  10/10 150 м 
[St]
+8.3 +7.8 97 +7  1008.7  -0.8  756  294           
15 21.06.17 190 (Ю) 3-4{06}  1000 м  дымка  10/10 100 м 
[St]
+8.2 +7.9 98 +8  1007.1  -1.6  755  294           
18 21.06.17 340 (С) 1-1{04}  4000 м  дымка  10/10 150 м 
[St]
+8.5 +8.1 97 +10  1005.7  -1.4  753  293           
21 21.06.17 010 (С) 1-2{03}  20000 м  дымка  10/10 210 м 
[St]
+9.7 +9.1 96 +11  1005.5  -0.2  753  292  +8.1    0.0    влажная 
00 22.06.17 180 (Ю) 3-4{04}  20000 м    10/1 600 м кучево-дожд., средняя, верхняя 
[Cb cap|Ac As|Ci fib]
+11.2 +9.5 89 +11  1004.8  -0.8  753  290           
03 22.06.17 190 (Ю) 3-4{06}  20000 м    10/0 средняя, верхняя 
[Ac trans|Cs]
+10.8 +9 89 +10  1004.4  -0.4  752  290           
06 22.06.17 200 (Ю) 3-4{05}  20000 м    10/0 средняя, верхняя 
[Ac trans|Cs]
+11.7 +9.7 88 +12  1003.9  -0.5  752  289           
09 22.06.17 210 (ЮЗ) 3-4{04}  20000 м    10/3 600 м кучево-дожд., средняя, верхняя 
[Cb cap|Ac As|Ci fib]
+11.2 +9.9 92 +12  1004.6  0.7  753  290    +12.2       
12 22.06.17 240 (ЮЗ) 1-3{04}  20000 м    4/1 600 м кучево-дожд., средняя 
[Cb cap|Ac cast]
+10.3 +9.2 93 +11  1005.3  0.8  753  291           
15 22.06.17 190 (Ю) 3-3{06}  20000 м    3/0 верхняя 
[Ci fib]
+9.5 +8.8 95 +9  1005.9  0.5  754  292           
18 22.06.17 220 (ЮЗ) 2-3{06}  0200 м  сильн. морось{туман}  ?/?  
+9.2 +8.9 98 +9  1005.3  -0.6  753  292           
21 22.06.17 190 (Ю) 1-2{04}  0200 м  слаб. морось{туман}  ?/?  
+9.6 +9.4 99 +11  1006.1  0.8  754  292  +9.2    0.3    влажная 
00 23.06.17 180 (Ю) 2-4{04}  0200 м  туман{морось}  ?/?  
+10.1 +9.9 99 +11  1005.8  -0.3  754  291           
03 23.06.17 170 (Ю) 4-6{07}  0500 м  туман  ?/?  
+11.4 +10.9 97 +13  1005.5  -0.3  753  289           
06 23.06.17 180 (Ю) 7-10{10}  0200 м  туман  ?/?  
+10.3 +9.6 95 +10  1004.4  -1.1  752  290           
09 23.06.17 170 (Ю) 4-8{11}  0200 м  туман  ?/?  
+8.9 +8.6 98 +8  1005.1  0.7  753  292    +11.4  0.0     
12 23.06.17 090 (В) 2-3{09}  0200 м  морось{туман}  ?/?  
+9.1 +8.9 99 +9  1006.3  1.2  754  292           
Время (UTC), дата Ветер
(°,м/с) 
Видим.   Явления Облачность Т
(°С)
Тd
(°С)
f(%) Тe
(°С)
Pmin
(гПа)
dP
(гПа)
Po
(мм)
O2
(г/м3)
Тmin Tmax R s Состояние
почвы

Для получения пояснительной информации подведите курсор к названию столбца.

ПОГОДА в Поронайске - архив

Всё, что Вы хотите узнать о погоде в Поронайске - удобно и подробно!

Выберите нужную дату (начиная с 1 января 2015* года) и нажмите кнопку "Найти".
Будут отображены архивные сводки погоды по пункту Поронайск, начиная с указанной даты.


Отображать данные в формате CSV (для использования в таблицах Excel)


Внимание! Наш архив погоды предназначен исключительно для личного некоммерческого использования в познавательных целях. Если Вам необходимы официальные справки о состоянии погоды (для производственных, юридических, коммерческих и т.п. целей), обращайтесь в органы Росгидромета.

*Примечание: данная дата относится к архиву по метеостанциям СССР (Россия, СНГ, Балтия).
Архив по метеостанциям Зарубежной Европы и Азии (кроме Китая) хранится 10 дней, по другим регионам земного шара (Китай, Африка, Америка, Австралия, Океания) - 1 день.

Поронайск - район местоположения метеостанции


Название, широта, долгота, высота метеостанции:
Поронайск 49.2°ш. 143.1°д. 8 м над ур. моря [Российская Федерация]

Дополнительная информация

В oтличие oт бoльшинства пoгoдных сайтoв мы публикуем пoдрoбную метеoинфoрмацию в детальнoм прoфессиoнальнoм фoрмате.

Характеристики температуры и влажнoсти вoздуха измеряются на высoте 2 м в тени вдали oт зданий и деревьев.
Скoрoсть ветра измеряется на высoте 10 м (на урoвне рoста челoвека скoрoсть ветра ниже в 1.5-2 раза). Если метеoстанция нахoдится в гoрoде или в лесу, тo скoрoсть ветра занижена на 2-4 м/с пo сравнению с oткрытым местoм. Скoрoсть ветра над акватoриями крупных рек и oзёр, а также на вершинах хoлмoв на 2-5 м/с выше, чем в oбычных услoвиях.
Атмoсфернoе давление в разных тoчках местнoсти мoжет значительнo oтличаться oт давления на метеoстанции, в зависимoсти oт услoвий рельефа (при пoдъёме на 10 м давление пoнижается примернo на 1 мм рт.ст.).